Current Version              Previous Version:    01  02  03  04  05  06  07  08  09  10  11  12  13  14  15  16  17  18  19  20  21  22  23  24  25  26  27  28  29  30  
   31  32  33  34  35  36  37  38  39  40  41  42  43  44  45  46  47  48  49  50  51  52  53  54  55  56  57  58  59  60  

[Printable]
499
ASUS44 KFWD 222215
RWRTX
NORTH TEXAS HOURLY WEATHER ROUNDUP
NATIONAL WEATHER SERVICE FORT WORTH TX
500 PM CDT WED OCT 22 2014

NOTE: "FAIR" INDICATES FEW OR NO CLOUDS BELOW 12,000 FEET WITH NO
SIGNIFICANT WEATHER AND/OR OBSTRUCTIONS TO VISIBILITY.

TXZ118-119-222300-
DALLAS/FORT WORTH METROPLEX

CITY           SKY/WX    TMP DP  RH WIND       PRES   REMARKS
DFW AIRPORT    PTSUNNY   80  57  45 S7        30.07S
DALLAS LOVE    PTSUNNY   78  57  48 E9        30.07F
FTW MEACHAM    MOSUNNY   79  58  48 SE12      30.06F
DAL-EXECUTIVE  MOSUNNY   81  57  43 E8        30.07F
FTW-ALLIANCE   MOSUNNY   78  56  46 SE7       30.07S
FTW-NAS-JRB    PTSUNNY   85  57  38 SE8       30.11S
FTW-SPINKS     MOSUNNY   79  57  47 E8        30.09S
ARLINGTON      MOSUNNY   79  56  45 E6        30.07F
GRAND PRAIRIE  SUNNY     79  59  50 MISG      30.08F
ADDISON        PTSUNNY   77  55  47 SE8       30.08S
MESQUITE       MOSUNNY   81  54  39 E6        30.08S
LANCASTER      PTSUNNY   79  54  41 SE5       30.08S
$$

TXZ091>094-102>105-117-120-121-131>134-222300-
NORTH CENTRAL TEXAS

CITY           SKY/WX    TMP DP  RH WIND       PRES   REMARKS
SHRMAN/DENISON SUNNY     77  60  55 E6        30.09S
GAINESVILLE    MOSUNNY   76  57  52 SE7       30.10S
BOWIE          PTSUNNY   76  59  56 SE5       30.08S
BRIDGEPORT     PTSUNNY   77  59  54 SE5       30.09S
DECATUR        MOSUNNY   76  56  49 SE6       30.08F
DENTON         MOSUNNY   79  57  46 E9        30.07F
MCKINNEY       SUNNY     78  56  46 SE7       30.08S
GREENVILLE     SUNNY     75  54  46 CALM      30.09S
ROCKWALL       PTSUNNY   77  57  49 E6        30.07S
TERRELL        MOSUNNY   80  56  43 E6        30.08F
WAXAHACHIE     MOSUNNY   79  58  49 E3        30.09S
CLEBURNE       MOSUNNY   79  59  50 SE9       30.09S
GRANBURY       MOSUNNY   80  59  47 E7        30.08S
$$

TXZ083>090-098>101-113>116-127>130-139>142-154-155-222300-
WESTERN NORTH TEXAS

CITY           SKY/WX    TMP DP  RH WIND       PRES   REMARKS
WICHITA FALLS  CLOUDY    75  58  55 S8        30.07F
WF-KICKAPOO    CLOUDY    76  56  48 S9        30.09S
VERNON         CLOUDY    66  59  77 CALM      30.10F
ABILENE        CLOUDY    70  58  65 N3        30.10F
ABILENE-DYESS  CLOUDY    69  56  63 CALM      30.10S
BRECKENRIDGE   CLOUDY    77  54  44 SE5       30.08S HAZE
GRAHAM         CLOUDY    75  60  59 S3        30.08S
MINERAL WELLS  PTSUNNY   77  57  50 S6        30.06F
STEPHENVILLE   MOSUNNY   77  56  48 SE7       30.11F
COMANCHE       PTSUNNY   79  56  45 SE6       30.08S
BROWNWOOD      CLOUDY    77  54  44 SE7       30.07F
COLEMAN        LGT RAIN  71  61  70 N6        30.08F
BRADY          PTSUNNY   77  50  38 E6        30.07S
$$

TXZ143>147-156>162-174-175-222300-
CENTRAL TEXAS

CITY           SKY/WX    TMP DP  RH WIND       PRES   REMARKS
WACO           MOSUNNY   80  57  45 SE3       30.06S
WACO-TSTC      SUNNY     81  57  44 CALM      30.06S
WACO-MCGREGOR  MOSUNNY   81  57  44 CALM      30.07F
HILLSBORO      PTSUNNY   81  56  41 NE7       30.07F
CORSICANA      SUNNY     80  53  39 E7        30.08S
MEXIA          SUNNY     79  56  46 NE3       30.06S
HEARNE         SUNNY     80  58  47 NE3       30.06S
CAMERON        MOSUNNY   79  60  51 NE3       30.06R
TEMPLE         SUNNY     79  55  44 E8        30.05F
KILLEEN        MOSUNNY   79  57  47 E8        30.06F
KILLEEN-SKYLRK PTSUNNY   81  57  44 SE9       30.06F
FORT HOOD      SUNNY     81  58  45 E3        30.06F
GATESVILLE     MOSUNNY   79  59  50 E8        30.09S
HAMILTON       PTSUNNY   78  56  45 SE9G17    30.08F
LAMPASAS       MOSUNNY   78  59  52 E9        30.05F
$$

TXZ095>097-106>112-122>126-135>138-148>153-164>167-222300-
EAST TEXAS

CITY           SKY/WX    TMP DP  RH WIND       PRES   REMARKS
PARIS          SUNNY     77  52  41 E7        30.10F
SULPHUR SPRNGS SUNNY     78  52  39 SE6       30.10F
MOUNT PLEASANT SUNNY     78  50  37 E9        30.10F
MINEOLA        SUNNY     79  52  38 E5        30.09S
TYLER          SUNNY     79  52  38 E7        30.07F
LONGVIEW       SUNNY     77  52  41 E7        30.08S
MARSHALL       SUNNY     78  50  37 CALM      30.11S
ATHENS         SUNNY     77  54  44 E7        30.07S
PALESTINE      SUNNY     78  58  49 E8        30.08S
JACKSONVILLE   SUNNY     77  53  44 NE5       30.10S
HENDERSON      SUNNY     78  50  38 E6        30.09S
NACOGDOCHES    SUNNY     77  54  44 E5        30.08S
LUFKIN         SUNNY     81  56  42 VRB7      30.06S
$$

SUPPLEMENTAL OBSERVATIONS (CENTRAL)

CITY           SKY/WX    TMP DP  RH WIND       PRES   REMARKS
LAKE TEXOMA      N/A     79  57  47 E5          N/A
CADDO GRASSLND   N/A     75  55  50 E5          N/A
PAT MAYSE LAKE   N/A     75  54  46 NE3         N/A
GREENVILLE       N/A     77  54  44 E5          N/A
CEDAR HILL       N/A     79  57  47 E2          N/A
ATHENS           N/A     79  54  41 SE8         N/A
PALESTINE        N/A     77  55  47 E3          N/A
LAKE LIMESTONE   N/A     81  55  41 NE8         N/A
MCGREGOR         N/A     81  55  41 E7          N/A
TEMPLE           N/A     79  59  50 E5          N/A
$$

SUPPLEMENTAL OBSERVATIONS (WEST)

CITY           SKY/WX    TMP DP  RH WIND       PRES   REMARKS
MILLERS CREEK    N/A     70  50  49 NW5G14      N/A
POSSUM KINGDOM   N/A     77  54  44 SE6         N/A
LBJ GRASSLAND    N/A     79  57  47 SE7         N/A
GRANBURY         N/A     79  57  47 E7          N/A
COMANCHE         N/A     77  54  44 SE8G16      N/A
HAMBY            N/A     70  55  60 W6          N/A
IVIE RESERVOIR   N/A     70  54  56 NW7         N/A
COLORADO BEND    N/A     79  54  41 S6          N/A
$$

SUPPLEMENTAL OBSERVATIONS (EAST)

CITY           SKY/WX    TMP DP  RH WIND       PRES   REMARKS
CLARKSVILLE      N/A     75  50  41 E6          N/A
TEXARKANA        N/A     77  50  38 E5          N/A
LINDEN           N/A     77  50  38 E6          N/A
CADDO LAKE       N/A     79  52  38 E3          N/A
GILMER           N/A     79  54  41 E5          N/A
HENDERSON        N/A     79  50  36 E7          N/A
LUFKIN           N/A     79  54  41 MISG        N/A
N SABINE NF      N/A     73  50  43 MISG        N/A
$$

SUPPLEMENTAL OBSERVATIONS ARE A COLLECTION OF AUTOMATED INSTRUMENTS
THAT ARE MAINTAINED BY A VARIETY OF FEDERAL AND STATE AGENCIES.
CERTAIN ELEMENTS...SUCH AS HUMIDITY VALUES AND SUSTAINED WIND
SPEEDS...MAY BE APPROXIMATED.